Weather History for Greenville, AL

Change the Weather History Date:

Saturday, March 9, 2013

  Actual Average Record
Temperature  
Mean Temperature 58 °F -  
Max Temperature 73 °F 71 °F 85 °F (1974)
Min Temperature 42 °F 43 °F 26 °F (1957)
Degree Days  
Heating Degree Days 8    
Growing Degree Days 8 (Base 50)    
Moisture  
Dew Point 37 °F    
Average Humidity 48    
Maximum Humidity 79    
Minimum Humidity 25    
Precipitation  
Precipitation 0.00 in - - ()
Sea Level Pressure  
Sea Level Pressure 30.17 in    
Wind  
Wind Speed 3 mph (SE)    
Max Wind Speed 10 mph    
Max Gust Speed 18 mph    
Visibility 10 miles    
Events      
Averages and records for this station are not official NWS values.
T = Trace of Precipitation, MM = Missing Value Source: NWS Daily Summary

Daily Weather History Graph

Daily Weather History Graph

Search for Another Location

Airport:

Trip Planner

Search our weather history database for the weather conditions in past years. The results will help you decide how hot, cold, wet, or windy it might be!

Date:

Astronomy

Mar. 09, 2013 Rise Set
Actual Time 6:03 AM CST 5:50 PM CST
Civil Twilight 5:39 AM CST 6:14 PM CST
Nautical Twilight 5:11 AM CST 6:43 PM CST
Astronomical Twilight 4:42 AM CST 7:11 PM CST
Moon 4:21 AM CST (3/9) 3:56 PM CST (3/9)
Length of Visible Light 12h 35m
Length of Day
11h 46m
Waning Crescent, 5% of the Moon is Illuminated
Mar 9
Waning Crescent
Mar 11
New
Mar 19
First Quarter
Mar 27
Full
Apr 2
Last Quarter

Hourly Weather History & Observations

Time (CST) Temp. Dew Point Humidity Pressure Visibility Wind Dir Wind Speed Gust Speed Precip Events Conditions
12:56 AM 42.1 °F 36.0 °F 79% 30.19 in 10.0 mi Calm Calm - N/A   Clear
1:56 AM 42.1 °F 36.0 °F 79% 30.18 in 10.0 mi Calm Calm - N/A   Clear
2:56 AM 43.0 °F 36.0 °F 76% 30.17 in 10.0 mi Calm Calm - N/A   Clear
3:56 AM 44.1 °F 36.0 °F 73% 30.18 in 10.0 mi Calm Calm - N/A   Clear
4:56 AM 44.1 °F 36.0 °F 73% 30.20 in 10.0 mi Calm Calm - N/A   Clear
5:56 AM 44.1 °F 35.1 °F 71% 30.20 in 10.0 mi Calm Calm - N/A   Clear
6:56 AM 46.0 °F 35.1 °F 66% 30.22 in 7.0 mi Calm Calm - N/A   Clear
7:56 AM 53.1 °F 36.0 °F 52% 30.24 in 6.0 mi ESE 5.8 mph - N/A   Haze
8:56 AM 59.0 °F 37.0 °F 44% 30.24 in 8.0 mi ESE 9.2 mph - N/A   Clear
9:56 AM 64.0 °F 36.0 °F 35% 30.24 in 10.0 mi SE 10.4 mph - N/A   Clear
10:56 AM 66.9 °F 35.1 °F 31% 30.23 in 10.0 mi SE 9.2 mph 16.1 mph N/A   Clear
11:56 AM 69.1 °F 34.0 °F 27% 30.20 in 10.0 mi ESE 8.1 mph 18.4 mph N/A   Clear
12:56 PM 70.0 °F 33.1 °F 26% 30.18 in 10.0 mi SSE 10.4 mph 16.1 mph N/A   Clear
1:56 PM 72.0 °F 34.0 °F 25% 30.15 in 10.0 mi South 4.6 mph - N/A   Clear
2:56 PM 73.9 °F 37.9 °F 27% 30.14 in 10.0 mi Variable 4.6 mph - N/A   Clear
3:56 PM 71.1 °F 37.0 °F 29% 30.14 in 10.0 mi SSE 6.9 mph - N/A   Clear
4:56 PM 69.1 °F 37.0 °F 31% 30.14 in 10.0 mi SSE 6.9 mph - N/A   Clear
5:56 PM 64.9 °F 39.0 °F 39% 30.14 in 10.0 mi SE 5.8 mph - N/A   Clear
6:56 PM 63.0 °F 39.0 °F 41% 30.13 in 10.0 mi SE 8.1 mph - N/A   Clear
7:56 PM 61.0 °F 39.0 °F 44% 30.13 in 10.0 mi SSE 5.8 mph - N/A   Clear
8:56 PM 60.1 °F 37.9 °F 44% 30.10 in 10.0 mi ESE 9.2 mph - N/A   Clear
9:56 PM 59.0 °F 36.0 °F 42% 30.13 in 10.0 mi South 5.8 mph - N/A   Clear
10:56 PM 57.0 °F 39.9 °F 53% 30.10 in 10.0 mi SE 4.6 mph - N/A   Clear
11:56 PM 55.9 °F 39.9 °F 55% 30.09 in 10.0 mi SE 4.6 mph - N/A   Clear